Location: Academy at Carrie F Thomas
(32.8490°N, 97.2053°W)
Time: 06:25:00
(UTC+00:00)

Meteor 2-15 Rocket - Pass Details

Date: 07 July 2022
Orbit: 939 x 956 km, 82.5° (Epoch: 12 August)

Event Time Altitude Azimuth Distance (km) Brightness Sun altitude
Rises 10:38:32 0° 356° (N) 3,636 7.9 -9.5°
Reaches altitude 10° 10:41:04 10° 359° (N) 2,685 7.3 -9.1°
Maximum altitude 10:47:11 70° 83° (E) 1,007 4.8 -8.0°
Drops below altitude 10° 10:53:15 10° 166° (SSE) 2,660 6.6 -7.0°
Sets 10:55:44 0° 169° (S) 3,599 7.3 -6.5°
